This is the latest recevied weather packets stored in our database for station/object KM4CBK. If no packets are shown the sender has not sent any weather packets the latest 10 day(s).
| Time | Temp. | Humidity | Pressure | Rain* | Wind** | Luminosity | Snow |
|---|---|---|---|---|---|---|---|
| 1777936105 | 23.89° C | 47% | 1012.4 hPa | 0 mm | - | 28 W/m² | - |
| 1777935803 | 23.89° C | 49% | 1012.4 hPa | 0 mm | - | 31 W/m² | - |
| 1777935502 | 24.44° C | 46% | 1012.3 hPa | 0 mm | - | 31 W/m² | - |
| 1777935198 | 24.44° C | 45% | 1012.4 hPa | 0 mm | - | 31 W/m² | - |
| 1777934895 | 25° C | 44% | 1012.3 hPa | 0 mm | - | 33 W/m² | - |
| 1777934592 | 25° C | 45% | 1012.6 hPa | 0 mm | - | 34 W/m² | - |
| 1777934289 | 25.56° C | 44% | 1012.6 hPa | 0 mm | - | 59 W/m² | - |
| 1777933984 | 25.56° C | 43% | 1012.5 hPa | 0 mm | - | 83 W/m² | - |
| 1777933681 | 26.11° C | 44% | 1012.5 hPa | 0 mm | - | 172 W/m² | - |
| 1777933378 | 26.11° C | 42% | 1012.5 hPa | 0 mm | - | 98 W/m² | - |
| 1777933076 | 26.67° C | 41% | 1012.5 hPa | 0 mm | - | 124 W/m² | - |
| 1777932773 | 25.56° C | 42% | 1012.5 hPa | 0 mm | - | 82 W/m² | - |
| 1777932469 | 25.56° C | 44% | 1012.8 hPa | 0 mm | - | 55 W/m² | - |
| 1777932166 | 25.56° C | 40% | 1012.8 hPa | 0 mm | - | 49 W/m² | - |
| 1777931864 | 25.56° C | 42% | 1012.6 hPa | 0 mm | - | 48 W/m² | - |
| 1777931560 | 25.56° C | 41% | 1012.6 hPa | 0 mm | - | 86 W/m² | - |
| 1777931256 | 26.11° C | 38% | 1012.8 hPa | 0 mm | - | 172 W/m² | - |
| 1777930953 | 26.67° C | 39% | 1012.7 hPa | 0 mm | - | 182 W/m² | - |
| 1777930650 | 26.11° C | 40% | 1012.8 hPa | 0 mm | - | 89 W/m² | - |
| 1777930346 | 26.11° C | 41% | 1012.7 hPa | 0 mm | - | 62 W/m² | - |
| 1777930043 | 26.67° C | 38% | 1012.8 hPa | 0 mm | - | 92 W/m² | - |
| 1777929739 | 27.78° C | 37% | 1012.7 hPa | 0 mm | - | 154 W/m² | - |
| 1777929431 | 27.22° C | 36% | 1012.8 hPa | 0 mm | - | 313 W/m² | - |
| 1777929127 | 27.22° C | 36% | 1012.8 hPa | 0 mm | - | 385 W/m² | - |
| 1777928825 | 26.67° C | 36% | 1013 hPa | 0 mm | - | 309 W/m² | - |
* Rain latest hour (hover to see other rain measurements)
** Current wind speed in m/s (hover to see current wind gust speed)